Location: Seasalter
(51.3333°N, 1.0167°E)
Time: 06:53:30
(UTC+00:00)

ATLAS 5 CENTAUR R/B - Pass Details

Date: 26 April 2024
Orbit: 421 x 1169 km, 63.3° (Epoch: 18 May)

Event Time Altitude Azimuth Distance (km) Brightness Sun altitude
Rises 00:22:33 0° 315° (NW) 2,839 5.5 -24.7°
Reaches altitude 10° 00:24:38 10° 319° (NW) 2,033 4.7 -24.7°
Maximum altitude 00:29:15 64° 42° (NE) 823 2.3 -24.6°
Enters shadow 00:32:32 24° 117° (ESE) 1,623 3.5 -24.5°
